Weather History for Redmond, OR

Change the Weather History Date:

Saturday, June 21, 2014

  Actual Average Record
Temperature  
Mean Temperature 56 °F 60 °F  
Max Temperature 75 °F 78 °F 95 °F (1970)
Min Temperature 36 °F 42 °F 31 °F (1983)
Degree Days  
Heating Degree Days 9 6  
Month to date heating degree days 177 172  
Since 1 June heating degree days 177 172  
Since 1 July heating degree days 6643 6668  
Cooling Degree Days 0 1  
Month to date cooling degree days 0 11  
Year to date cooling degree days 0 16  
Since 1 June cooling degree days 0 11  
Growing Degree Days 5 (Base 50)    
Moisture  
Dew Point 32 °F    
Average Humidity 52    
Maximum Humidity 85    
Minimum Humidity 19    
Precipitation  
Precipitation 0.00 in 0.02 in 0.25 in (1984)
Month to date precipitation 0.01 0.50  
Year to date precipitation 3.46 4.54  
Sea Level Pressure  
Sea Level Pressure 30.01 in    
Wind  
Wind Speed 6 mph (NW)    
Max Wind Speed 17 mph    
Max Gust Speed 21 mph    
Visibility 10 miles    
Events      
T = Trace of Precipitation, MM = Missing Value Source: NWS Daily Summary

Daily Weather History Graph

Daily Weather History Graph

Search for Another Location

Airport:

Trip Planner

Search our weather history database for the weather conditions in past years. The results will help you decide how hot, cold, wet, or windy it might be!

Date:

Astronomy

Jun. 21, 2014 Rise Set
Actual Time 5:20 AM PDT 8:52 PM PDT
Civil Twilight 4:44 AM PDT 9:28 PM PDT
Nautical Twilight 3:55 AM PDT 10:16 PM PDT
Astronomical Twilight 2:53 AM PDT 11:19 PM PDT
Moon 1:47 AM PDT (6/21) 3:27 PM PDT (6/21)
Length of Visible Light 16h 44m
Length of Day
15h 31m
Waning Crescent, 29% of the Moon is Illuminated
Jun 21
Waning Crescent
Jun 27
New
Jul 5
First Quarter
Jul 12
Full
Jul 18
Last Quarter

Hourly Weather History & Observations

Time (PDT) Temp. Windchill Dew Point Humidity Pressure Visibility Wind Dir Wind Speed Gust Speed Precip Events Conditions
12:56 AM 41.0 °F 38.0 °F 34.0 °F 76% 30.07 in 10.0 mi SSE 4.6 mph - N/A   Clear
1:56 AM 41.0 °F 37.1 °F 34.0 °F 76% 30.07 in 10.0 mi SW 5.8 mph - N/A   Clear
3:56 AM 37.0 °F 32.4 °F 33.1 °F 86% 30.06 in 10.0 mi SSE 5.8 mph - N/A   Clear
4:56 AM 39.0 °F 36.8 °F 34.0 °F 82% 30.06 in 10.0 mi South 3.5 mph - N/A   Clear
5:56 AM 37.0 °F - 33.1 °F 86% 30.06 in 10.0 mi Calm Calm - N/A   Clear
6:56 AM 43.0 °F 41.3 °F 35.1 °F 74% 30.06 in 10.0 mi SSE 3.5 mph - N/A   Clear
7:56 AM 51.1 °F - 37.0 °F 59% 30.05 in 10.0 mi Calm Calm - N/A   Clear
8:56 AM 55.9 °F - 36.0 °F 47% 30.05 in 10.0 mi Calm Calm - N/A   Clear
9:56 AM 61.0 °F - 35.1 °F 38% 30.03 in 10.0 mi NW 5.8 mph - N/A   Clear
10:56 AM 64.9 °F - 32.0 °F 29% 30.01 in 10.0 mi Variable 4.6 mph - N/A   Clear
11:56 AM 66.9 °F - 32.0 °F 27% 29.99 in 10.0 mi NNW 9.2 mph - N/A   Clear
12:56 PM 68.0 °F - 34.0 °F 28% 29.99 in 10.0 mi NNW 10.4 mph - N/A   Clear
1:56 PM 70.0 °F - 33.1 °F 26% 29.98 in 10.0 mi NW 11.5 mph 19.6 mph N/A   Clear
2:56 PM 71.1 °F - 28.0 °F 20% 29.98 in 10.0 mi NW 10.4 mph 18.4 mph N/A   Clear
3:56 PM 73.0 °F - 30.9 °F 21% 29.97 in 10.0 mi Variable 4.6 mph 17.3 mph N/A   Clear
4:56 PM 73.9 °F - 32.0 °F 21% 29.95 in 10.0 mi North 9.2 mph - N/A   Clear
5:56 PM 73.0 °F - 30.9 °F 21% 29.95 in 10.0 mi NNW 13.8 mph - N/A   Clear
6:56 PM 73.0 °F - 28.9 °F 20% 29.94 in 10.0 mi NNW 11.5 mph - N/A   Clear
7:56 PM 71.1 °F - 28.0 °F 20% 29.94 in 10.0 mi North 9.2 mph - N/A   Clear
8:56 PM 64.9 °F - 28.9 °F 26% 29.96 in 10.0 mi North 6.9 mph - N/A   Clear
9:56 PM 60.1 °F - 32.0 °F 35% 29.98 in 10.0 mi North 4.6 mph - N/A   Clear
10:56 PM 51.1 °F - 28.9 °F 43% 30.00 in 10.0 mi Calm Calm - N/A   Clear
11:56 PM 55.0 °F - 30.9 °F 40% 30.00 in 10.0 mi WNW 5.8 mph - N/A   Clear